This is the latest recevied weather packets stored in our database for station/object XE1E-15. If no packets are shown the sender has not sent any weather packets the latest 10 day(s).
| Time | Temp. | Humidity | Pressure | Rain* | Wind** | Luminosity | Snow |
|---|---|---|---|---|---|---|---|
| 1777862952 | 24.44° C | 66% | 1025.8 hPa | - | - | - | - |
| 1777862918 | 24.44° C | 66% | 1025.8 hPa | - | - | - | - |
| 1777861958 | 23.89° C | 70% | 1025.9 hPa | - | - | - | - |
| 1777861032 | 23.89° C | 71% | 1025.9 hPa | - | - | - | - |
| 1777860998 | 23.89° C | 71% | 1025.9 hPa | - | - | - | - |
| 1777860038 | 23.33° C | 75% | 1025.7 hPa | - | - | - | - |
| 1777859078 | 23.33° C | 73% | 1025.5 hPa | - | - | - | - |
| 1777858118 | 21.11° C | 82% | 1025 hPa | - | - | - | - |
| 1777857158 | 21.11° C | 88% | 1024.6 hPa | - | - | - | - |
| 1777856197 | 22.22° C | 76% | 1024.2 hPa | - | - | - | - |
| 1777855237 | 23.89° C | 57% | 1023.6 hPa | - | - | - | - |
| 1777854277 | 25.56° C | 56% | 1022.6 hPa | - | - | - | - |
| 1777853317 | 25.56° C | 56% | 1022.3 hPa | - | - | - | - |
| 1777852357 | 25° C | 56% | 1022.1 hPa | - | - | - | - |
| 1777851397 | 25° C | 55% | 1022.6 hPa | - | - | - | - |
| 1777850437 | 25° C | 57% | 1022.7 hPa | - | - | - | - |
| 1777849477 | 24.44° C | 58% | 1022.7 hPa | - | - | - | - |
| 1777848517 | 25° C | 51% | 1022.8 hPa | - | - | - | - |
| 1777847556 | 25° C | 49% | 1023.1 hPa | - | - | - | - |
| 1777846596 | 27.22° C | 41% | 1022.4 hPa | - | - | - | - |
| 1777845636 | 27.22° C | 39% | 1022.1 hPa | - | - | - | - |
| 1777844676 | 28.33° C | 36% | 1022.1 hPa | - | - | - | - |
| 1777843973 | 29.44° C | 35% | 1021.9 hPa | - | - | - | - |
| 1777843910 | 29.44° C | 35% | 1021.9 hPa | - | - | - | - |
| 1777843722 | 29.44° C | 35% | 1021.9 hPa | - | - | - | - |
* Rain since midnight (hover to see other rain measurements)
** Current wind speed in m/s (hover to see current wind gust speed)